Regional Weather Roundup
Issued by NWS Little Rock, AR

Home | Current Version | Previous Version | Graphics & Text | Print | Product List | Glossary On
Versions: 1 2 3 4 5 6 7 8 9 10 11 12 13 14 15 16 17 18 19 20 21 22 23 24 25 26 27 28 29 30 31 32 33 34 35 36 37 38 39 40 41 42 43 44 45 46 47 48 49 50
000
ASUS44 KLZK 250105
RWRLZK

WEATHER ROUNDUP FOR ARKANSAS
NATIONAL WEATHER SERVICE LITTLE ROCK AR
800 PM CDT SAT JUN 24 2017

NOTE: "FAIR" INDICATES FEW OR NO CLOUDS BELOW 12,000 FEET WITH NO
SIGNIFICANT WEATHER AND/OR OBSTRUCTIONS TO VISIBILITY.

ARZ001-003-010-029-250200-
NORTHWEST ARKANSAS

CITY           SKY/WX    TMP DP  RH WIND       PRES   REMARKS
FAYETTEVILLE   CLEAR     74  53  48 VRB3      30.18R
FORT SMITH     CLOUDY    79  61  53 E6        30.14R
HARRISON       CLOUDY    71  53  52 NW5       30.18R
BENTONVILLE    CLEAR     73  50  43 NE7       30.20R
ROGERS         PTCLDY    73  52  47 N6        30.20R
SILOAM SPGS    CLEAR     75  52  43 N5        30.18R
HIGHFILL       CLEAR     75  52  43 N7        30.19R
SPRINGDALE     PTCLDY    75  50  41 N9        30.20R
$$

ARZ004-005-016-250200-
NORTH CENTRAL ARKANSAS

CITY           SKY/WX    TMP DP  RH WIND       PRES   REMARKS
BATESVILLE     PTCLDY    73  55  53 CALM      30.15R
FLIPPIN        CLOUDY   N/A N/A N/A CALM      30.13S
MTN HOME       CLOUDY    69  60  73 CALM      30.15R
$$

ARZ040-041-250200-
WEST CENTRAL ARKANSAS

CITY           SKY/WX    TMP DP  RH WIND       PRES   REMARKS
MENA           PTCLDY    79  63  57 NE3       30.16R
MOUNT IDA      CLOUDY    74  65  73 CALM      30.14R
$$

ARZ009-017-025-026-028-250200-
NORTHEAST ARKANSAS

CITY           SKY/WX    TMP DP  RH WIND       PRES   REMARKS
CORNING        FAIR      73  63  68 CALM      30.14S
JONESBORO      PTCLDY    77  61  57 CALM      30.13R
WALNUT RIDGE   PTCLDY    72  57  60 N6        30.14R
BLYTHEVILLE    CLEAR     74  63  68 N7        30.13R
$$

ARZ022-023-033-042-044-250200-
CENTRAL ARKANSAS

CITY           SKY/WX    TMP DP  RH WIND       PRES   REMARKS
LITTLE ROCK    MOCLDY    75  61  61 N6        30.13R
N LITTLE ROCK    N/A     75  61  62 NE3       30.14R
JACKSONVILLE   PTCLDY    76  62  60 N3        30.13R
CONWAY           N/A     79  61  53 NE6       30.12R
SEARCY         PTCLDY    77  61  57 N3        30.16R
HOT SPRINGS    MOCLDY    78  63  59 E3        30.14R
RUSSELLVILLE   CLEAR     71  59  65 NE5       30.14R
CLINTON        FAIR      70  61  73 CALM      30.16R
$$

ARZ036-250200-
EAST ARKANSAS

CITY           SKY/WX    TMP DP  RH WIND       PRES   REMARKS
WEST MEMPHIS   CLEAR     74  63  68 N3        30.12R
$$

ARZ050-053-066-070-073-250200-
SOUTHWEST ARKANSAS

CITY           SKY/WX    TMP DP  RH WIND       PRES   REMARKS
CAMDEN         CLOUDY    75  66  73 NE3       30.12R
TEXARKANA      CLOUDY    76  67  73 E5        30.12R
EL DORADO      CLOUDY    75  68  78 NE6       30.11S
DE QUEEN       CLOUDY    77  66  68 E3        30.10R
$$

ARZ056-057-069-250200-
SOUTHEAST ARKANSAS

CITY           SKY/WX    TMP DP  RH WIND       PRES   REMARKS
PINE BLUFF     CLOUDY    75  67  76 NE5       30.13R
STUTTGART      PTCLDY   N/A N/A N/A NE6       30.14R
MONTICELLO     CLOUDY    76  67  73 N3        30.11R

$$





USA.gov is the U.S. government's official web portal to all federal, state and local government web resources and services.